QPF
0.00 0.00 0.00 0.00 0.00 0.00 0.00 0.00 0.00 0.00 0.00 0.00 0.00 0.00 0.00 0.00 0.00 0.00 0.00 0.00 0.00 0.00 0.00 0.00 0.00 0.00 0.00 0.00 0.00 0.00 0.00 0.00 0.00 0.00 0.00 0.00 0.00 0.00
0.00 0.00 0.00 0.00 0.00 0.00 0.00 0.00 0.00 0.00 0.00 0.00 0.00 0.00 0.00 0.00 0.00 0.00 0.00 0.00 0.00 0.00 0.00 0.00 0.00 0.00 0.00 0.00 0.00 0.00 0.00 0.00 0.00 0.00 0.00 0.00 0.00 0.00
0.00 0.00 0.00 0.00 0.00 0.00 0.00 0.00 0.00 0.00 0.00 0.00 0.00 0.00 0.00 0.00 0.00 0.00 0.00 0.00 0.00 0.00 0.00 0.00 0.00 0.00 0.00 0.00 0.00 0.00 0.00 0.00 0.00 0.00 0.00 0.00 0.00 0.00
0.00 0.00 0.00 0.00 0.00 0.00 0.00 0.00 0.00 0.00 0.00 0.00 0.00 0.00 0.00 0.00 0.00 0.00 0.00 0.00 0.00 0.00 0.00 0.00 0.00 0.00 0.00 0.00 0.00 0.00 0.00 0.00 0.00 0.00 0.00 0.00 0.00 0.00
0.00 0.00 0.00 0.00 0.00 0.00 0.00 0.00 0.00 0.00 0.00 0.00 0.00 0.00 0.00 0.00 0.00 0.00 0.00 0.00 0.00 0.00 0.00 0.00 0.00 0.00 0.00 0.00 0.00 0.00 0.00 0.00 0.00 0.00 0.00 0.00 0.00 0.00
0.00 0.00 0.00 0.00 0.00 0.00 0.00 0.00 0.00 0.00 0.00 0.00 0.00 0.00 0.00 0.00 0.00 0.00 0.00 0.00 0.00 0.00 0.00 0.00 0.00 0.00 0.00 0.00 0.00 0.00 0.00 0.00 0.00 0.00 0.00 0.00 0.00 0.00
0.00 0.00 0.00 0.00 0.00 0.00 0.00 0.00 0.00 0.00 0.00 0.00 0.00 0.00 0.00 0.00 0.00 0.00 0.00 0.00 0.00 0.00 0.00 0.00 0.00 0.00 0.00 0.00 0.00 0.00 0.00 0.00 0.00 0.00 0.00 0.00 0.00 0.00
0.00 0.00 0.00 0.00 0.00 0.00 0.00 0.00 0.00 0.00 0.00 0.00 0.00 0.00 0.00 0.00 0.00 0.00 0.00 0.00 0.00 0.00 0.00 0.00 0.00 0.00 0.00 0.00 0.00 0.00 0.00 0.00 0.00 0.00 0.00 0.00 0.00 0.00
0.00 0.00 0.00 0.00 0.00 0.00 0.00 0.00 0.00 0.00 0.00 0.00 0.00 0.00 0.00 0.00 0.00 0.00 0.00 0.00 0.00 0.00 0.00 0.00 0.00 0.00 0.00 0.00 0.00 0.00 0.00 0.00 0.00 0.00 0.00 0.00 0.00 0.00
0.00 0.00 0.00 0.00 0.00 0.00 0.00 0.00 0.00 0.00 0.00 0.00 0.00 0.00 0.00 0.00 0.00 0.00 0.00 0.00 0.00 0.00 0.00 0.00 0.00 0.00 0.00 0.00 0.00 0.00 0.00 0.00 0.00 0.00 0.00 0.00 0.00 0.00
0.00 0.00 0.00 0.00 0.00 0.00 0.00 0.00 0.00 0.00 0.00 0.00 0.00 0.00 0.00 0.00 0.00 0.01 0.00 0.00 0.00 0.00 0.00 0.00 0.00 0.00 0.00 0.00 0.00 0.00 0.00 0.00 0.00 0.00 0.00 0.00 0.00 0.00
0.00 0.00 0.00 0.00 0.00 0.00 0.00 0.00 0.00 0.00 0.00 0.00 0.00 0.00 0.00 0.00 0.00 0.00 0.00 0.00 0.00 0.00 0.00 0.00 0.00 0.00 0.00 0.00 0.00 0.00 0.00 0.00 0.00 0.00 0.00 0.00 0.00 0.00
0.00 0.00 0.00 0.00 0.00 0.00 0.00 0.00 0.00 0.00 0.00 0.00 0.00 0.00 0.00 0.00 0.00 0.00 0.00 0.00 0.00 0.00 0.00 0.00 0.00 0.00 0.00 0.00 0.00 0.00 0.00 0.00 0.00 0.00 0.00 0.00 0.00 0.00
0.00 0.00 0.00 0.00 0.00 0.00 0.00 0.00 0.00 0.00 0.00 0.00 0.00 0.00 0.00 0.00 0.00 0.00 0.00 0.00 0.00 0.00 0.00 0.00 0.00 0.00 0.00 0.00 0.00 0.00 0.00 0.00 0.00 0.00 0.00 0.00 0.00 0.00
0.00 0.00 0.00 0.00 0.00 0.00 0.00 0.00 0.00 0.00 0.00 0.00 0.00 0.00 0.00 0.00 0.00 0.00 0.00 0.00 0.00 0.00 0.00 0.00 0.00 0.00 0.00 0.00 0.00 0.00 0.00 0.00 0.00 0.00 0.00 0.00 0.00 0.00
0.00 0.00 0.00 0.00 0.00 0.00 0.00 0.00 0.00 0.00 0.00 0.00 0.00 0.00 0.00 0.00 0.00 0.00 0.00 0.00 0.00 0.00 0.00 0.00 0.00 0.00 0.00 0.00 0.00 0.00 0.00 0.00 0.00 0.00 0.00 0.00 0.00 0.00
0.00 0.00 0.00 0.00 0.00 0.00 0.00 0.00 0.00 0.00 0.00 0.00 0.01 0.00 0.00 0.00 0.00 0.00 0.00 0.00 0.00 0.00 0.00 0.00 0.00 0.00 0.00 0.00 0.00 0.00 0.00 0.00 0.00 0.00 0.00 0.00 0.00 0.00
0.01 0.00 0.00 0.00 0.00 0.00 0.00 0.00 0.00 0.00 0.00 0.00 0.00 0.00 0.00 0.00 0.00 0.00 0.00 0.00 0.00 0.00 0.00 0.00 0.00 0.00 0.00 0.00 0.00 0.00 0.00 0.00 0.00 0.00 0.00 0.00 0.00 0.00
0.00 0.00 0.00 0.00 0.00 0.00 0.00 0.00 0.00 0.00 0.00 0.00 0.00 0.00 0.00 0.00 0.01 0.00 0.00 0.00 0.00 0.00 0.00 0.00 0.00 0.00 0.00 0.00 0.00 0.00 0.00 0.00 0.00 0.00 0.00 0.00 0.00 0.00
0.00 0.01 0.00 0.00 0.00 0.00 0.00 0.00 0.00 0.00 0.00 0.00 0.00 0.00 0.00 0.00 0.00 0.00 0.00 0.00 0.00 0.00 0.00 0.00 0.00 0.00 0.00 0.00 0.00 0.00 0.00 0.00 0.00 0.00 0.00 0.00 0.00 0.00
0.00 0.00 0.00 0.00 0.00 0.00 0.00 0.00 0.00 0.00 0.00 0.00 0.00 0.00 0.00 0.00 0.00 0.00 0.00 0.00 0.00 0.00 0.00 0.00 0.00 0.00 0.00 0.00 0.00 0.00 0.00 0.00 0.00 0.00 0.00 0.00 0.00 0.00
0.00 0.00 0.00 0.00 0.00 0.00 0.00 0.00 0.00 0.00 0.00 0.00 0.00 0.00 0.00 0.00 0.00 0.00 0.00 0.00 0.00 0.00 0.00 0.00 0.00 0.00 0.00 0.00 0.00 0.00 0.00 0.00 0.00 0.00 0.00 0.00 0.00 0.00
0.00 0.00 0.00 0.00 0.00 0.00 0.00 0.00 0.00 0.00 0.00 0.00 0.00 0.00 0.00 0.00 0.00 0.00 0.00 0.00 0.00 0.00 0.00 0.00 0.00 0.00 0.00 0.00 0.00 0.00 0.00 0.00 0.00 0.00 0.00 0.00 0.00 0.00
MSLP
1020.75 1020.66 1020.65 1020.47 1020.43 1020.36 1020.36 1020.51 1020.74 1020.38 1019.18 1017.84 1017.62 1016.78 1016.75 1016.72 1016.78 1016.97 1017.32 1017.43 1017.43 1017.38 1017.28 1017.24 1017.20 1017.30 1017.24 1017.14 1017.03 1016.91 1016.96 1016.91 1016.80 1016.65 1016.34 1016.06 1016.04 1016.26
1020.28 1020.21 1020.08 1019.99 1019.84 1019.76 1019.72 1019.71 1019.85 1019.73 1019.03 1017.90 1017.28 1016.83 1016.49 1016.16 1016.14 1016.27 1016.43 1016.64 1016.70 1016.70 1016.62 1016.64 1016.61 1016.53 1016.55 1016.51 1016.44 1016.35 1016.32 1016.38 1016.30 1016.11 1015.84 1015.51 1015.40 1015.87
1019.75 1019.66 1019.39 1019.34 1019.19 1019.05 1018.98 1018.95 1019.01 1018.97 1018.39 1017.22 1017.00 1016.58 1016.27 1015.94 1015.71 1015.56 1015.60 1015.67 1015.81 1015.87 1015.88 1015.80 1015.78 1015.67 1015.71 1015.79 1015.74 1015.55 1015.53 1015.60 1015.70 1015.52 1015.32 1015.08 1015.07 1015.50
1019.22 1019.13 1018.82 1018.68 1018.48 1018.31 1018.29 1018.29 1018.16 1017.96 1017.87 1016.72 1016.41 1016.08 1015.70 1015.32 1015.05 1014.95 1014.80 1014.60 1014.68 1014.70 1014.72 1014.78 1014.72 1014.75 1014.83 1014.93 1015.00 1014.86 1014.77 1014.93 1015.04 1015.05 1014.97 1014.72 1014.73 1015.14
1018.91 1018.69 1018.35 1018.06 1017.88 1017.55 1017.37 1017.27 1017.05 1016.78 1016.72 1016.33 1015.17 1015.22 1014.86 1014.86 1014.55 1014.25 1013.96 1013.88 1013.58 1013.47 1013.44 1013.45 1013.52 1013.56 1013.66 1013.83 1013.98 1014.02 1013.97 1014.13 1014.26 1014.46 1014.56 1014.47 1014.38 1014.72
1018.65 1018.27 1017.81 1017.47 1017.16 1016.86 1016.62 1016.44 1016.20 1016.06 1015.85 1015.44 1014.64 1014.22 1014.22 1013.97 1013.90 1013.80 1013.25 1013.08 1012.63 1012.53 1012.45 1012.51 1012.60 1012.57 1012.54 1012.63 1012.87 1013.06 1013.17 1013.32 1013.40 1013.61 1013.85 1013.94 1014.03 1014.21
1018.25 1017.80 1017.28 1016.79 1016.38 1016.04 1015.77 1015.60 1015.67 1015.46 1015.21 1014.95 1014.22 1013.62 1013.25 1013.31 1013.25 1012.97 1012.49 1012.36 1011.75 1011.99 1011.91 1011.65 1011.69 1011.62 1011.61 1011.62 1011.79 1012.01 1012.18 1012.45 1012.55 1012.73 1013.00 1013.39 1013.57 1013.67
1018.01 1017.41 1016.87 1016.34 1015.82 1015.44 1015.13 1014.91 1014.87 1014.64 1014.47 1014.43 1013.73 1013.08 1012.41 1012.08 1011.85 1011.67 1011.48 1011.33 1010.77 1011.19 1010.98 1010.34 1010.65 1010.71 1010.72 1010.77 1010.91 1010.98 1011.15 1011.29 1011.61 1011.87 1012.20 1012.74 1012.95 1013.00
1017.62 1017.05 1016.41 1015.87 1015.43 1015.03 1014.63 1014.28 1014.11 1014.02 1013.70 1013.37 1012.73 1012.21 1011.76 1011.72 1011.52 1010.84 1010.49 1010.23 1009.51 1009.46 1009.99 1009.71 1009.91 1009.78 1009.62 1009.60 1009.76 1010.00 1010.14 1010.48 1010.69 1010.94 1011.30 1011.82 1012.12 1012.27
1017.14 1016.63 1016.04 1015.49 1014.98 1014.58 1014.20 1013.91 1013.64 1013.37 1012.97 1012.66 1012.30 1011.47 1011.18 1010.67 1010.53 1010.23 1009.75 1009.20 1008.93 1008.90 1009.06 1008.69 1009.00 1008.52 1008.66 1008.73 1008.73 1008.86 1009.10 1009.47 1009.83 1010.22 1010.57 1011.00 1011.28 1011.45
1016.47 1016.05 1015.61 1015.13 1014.73 1014.26 1013.66 1013.27 1013.03 1012.54 1012.16 1011.79 1011.34 1010.84 1010.31 1009.84 1009.42 1009.07 1008.48 1008.40 1007.76 1007.63 1007.71 1007.93 1007.92 1007.97 1008.05 1008.06 1008.07 1007.87 1008.16 1008.50 1008.95 1009.42 1009.80 1010.13 1010.43 1010.69
1015.69 1015.25 1015.08 1014.76 1014.15 1013.83 1013.50 1013.17 1012.58 1011.96 1011.58 1010.99 1010.54 1009.93 1009.51 1008.92 1008.44 1008.18 1007.52 1007.25 1007.05 1006.72 1006.56 1006.93 1006.97 1007.52 1007.61 1007.20 1007.08 1007.44 1007.48 1007.65 1008.10 1008.52 1008.91 1009.40 1009.71 1010.04
1015.04 1014.62 1014.41 1014.20 1013.79 1013.39 1013.08 1012.61 1011.99 1011.43 1010.81 1010.34 1009.57 1008.80 1008.34 1007.89 1007.44 1006.92 1006.46 1006.36 1005.91 1005.46 1005.28 1005.64 1005.64 1006.18 1006.59 1006.63 1006.55 1006.80 1007.06 1007.51 1008.02 1008.39 1008.57 1008.90 1009.12 1009.39
1014.28 1013.93 1013.69 1013.48 1012.93 1012.49 1012.09 1011.51 1010.99 1010.59 1010.12 1009.69 1009.09 1008.24 1007.71 1007.02 1006.47 1006.02 1005.54 1005.17 1004.83 1004.40 1004.30 1004.52 1004.57 1005.02 1005.67 1006.37 1006.61 1006.58 1006.80 1007.15 1007.65 1008.24 1008.57 1008.62 1008.68 1008.86
1014.12 1013.48 1012.93 1012.44 1012.02 1011.54 1011.06 1010.53 1010.07 1009.81 1009.64 1009.12 1008.34 1007.54 1006.98 1006.30 1005.69 1005.23 1004.61 1004.12 1003.60 1003.21 1003.16 1003.39 1003.60 1003.97 1004.76 1005.40 1005.86 1006.22 1006.75 1006.94 1007.17 1007.61 1008.03 1008.30 1008.51 1008.75
1013.66 1012.97 1012.37 1011.80 1011.24 1010.68 1010.12 1009.81 1009.52 1009.30 1008.86 1008.24 1007.57 1006.90 1006.26 1005.66 1004.99 1004.53 1003.82 1003.33 1002.90 1002.51 1002.63 1002.84 1003.10 1003.30 1003.87 1004.50 1005.03 1005.64 1005.83 1006.35 1006.62 1006.98 1007.37 1007.77 1007.98 1008.10
1012.97 1012.33 1011.67 1011.08 1010.54 1009.95 1009.52 1009.24 1008.94 1008.52 1008.10 1007.53 1006.93 1006.28 1005.63 1005.01 1004.22 1003.74 1003.11 1002.65 1002.31 1002.07 1002.18 1002.37 1002.69 1002.88 1003.21 1003.74 1004.40 1004.81 1005.36 1005.75 1006.02 1006.39 1006.96 1007.28 1007.30 1007.41
1012.08 1011.69 1011.01 1010.49 1009.84 1009.25 1008.86 1008.31 1008.10 1007.75 1007.26 1006.70 1006.18 1005.60 1004.98 1004.34 1003.52 1002.96 1002.47 1002.13 1001.82 1001.69 1001.82 1002.12 1002.53 1002.90 1003.28 1003.53 1003.64 1004.12 1004.63 1005.04 1005.46 1005.85 1006.28 1006.66 1006.66 1006.72
1011.50 1010.94 1010.40 1009.89 1009.35 1008.86 1008.31 1007.83 1007.24 1006.86 1006.36 1005.95 1005.37 1004.76 1004.33 1003.67 1002.93 1002.26 1001.78 1001.49 1001.38 1001.40 1001.51 1001.82 1002.26 1002.66 1003.07 1003.27 1003.38 1003.30 1003.95 1004.49 1004.97 1005.33 1005.62 1005.78 1005.73 1005.78
1011.01 1010.49 1009.88 1009.26 1008.68 1008.17 1007.67 1007.15 1006.51 1005.95 1005.48 1005.02 1004.52 1004.07 1003.69 1003.04 1002.28 1001.77 1001.33 1001.10 1000.99 1001.06 1001.19 1001.44 1001.87 1002.18 1002.43 1002.64 1003.08 1003.20 1003.20 1003.93 1004.47 1004.84 1005.14 1005.15 1005.13 1005.11
1010.33 1009.82 1009.32 1008.68 1008.02 1007.45 1006.90 1006.34 1005.76 1005.12 1004.61 1004.23 1003.81 1003.36 1003.03 1002.43 1001.81 1001.51 1001.04 1000.70 1000.64 1000.85 1001.08 1001.27 1001.24 1001.43 1002.16 1002.68 1003.27 1003.50 1003.36 1003.53 1003.94 1004.31 1004.49 1004.80 1004.82 1004.70
1009.73 1009.11 1008.50 1007.91 1007.27 1006.64 1006.03 1005.46 1004.85 1004.32 1003.87 1003.42 1003.05 1002.69 1002.43 1001.95 1001.47 1001.17 1000.95 1000.74 1000.67 1000.74 1000.96 1001.07 1001.26 1001.65 1002.24 1002.70 1003.01 1003.36 1003.66 1003.69 1003.51 1003.49 1003.61 1003.97 1004.22 1003.93
1008.94 1008.37 1007.70 1007.06 1006.34 1005.65 1004.98 1004.54 1003.98 1003.71 1003.27 1002.82 1002.32 1002.13 1001.86 1001.35 1001.03 1000.84 1000.71 1000.63 1000.64 1000.77 1000.97 1001.41 1001.57 1001.78 1002.16 1002.53 1002.88 1003.33 1003.71 1003.63 1003.42 1003.33 1003.13 1003.03 1002.89 1002.87
Thickness
5557 5554 5550 5548 5545 5541 5537 5531 5523 5522 5532 5543 5537 5541 5538 5534 5528 5524 5518 5514 5510 5507 5505 5504 5503 5499 5498 5498 5498 5498 5496 5496 5496 5496 5498 5499 5498 5494
5550 5546 5543 5539 5536 5532 5528 5524 5518 5516 5519 5524 5525 5523 5523 5522 5518 5513 5509 5503 5498 5495 5492 5489 5488 5488 5486 5485 5484 5483 5484 5483 5482 5484 5485 5487 5486 5481
5542 5538 5536 5532 5529 5525 5520 5516 5511 5503 5506 5516 5511 5510 5506 5505 5504 5501 5497 5492 5488 5482 5478 5476 5475 5475 5474 5471 5470 5472 5471 5471 5470 5471 5472 5473 5471 5466
5533 5529 5527 5524 5519 5514 5509 5503 5499 5494 5490 5499 5498 5495 5492 5489 5487 5485 5482 5481 5477 5471 5465 5463 5462 5461 5460 5458 5456 5458 5459 5458 5457 5457 5457 5459 5456 5452
5521 5517 5515 5511 5508 5503 5499 5494 5489 5485 5479 5478 5488 5480 5479 5471 5468 5467 5467 5463 5462 5460 5455 5452 5450 5449 5448 5446 5445 5445 5446 5446 5446 5443 5443 5443 5443 5439
5507 5504 5501 5497 5493 5488 5483 5478 5473 5467 5464 5462 5468 5468 5461 5458 5451 5449 5449 5445 5447 5443 5442 5441 5439 5438 5437 5436 5435 5433 5432 5432 5433 5432 5430 5429 5428 5425
5493 5490 5487 5483 5479 5474 5469 5463 5454 5448 5443 5439 5444 5447 5446 5439 5432 5431 5431 5429 5434 5428 5426 5428 5425 5426 5426 5423 5423 5421 5420 5419 5420 5420 5418 5416 5414 5412
5477 5474 5469 5466 5461 5457 5452 5446 5437 5430 5425 5416 5420 5422 5428 5424 5421 5417 5415 5414 5420 5414 5411 5419 5412 5413 5412 5410 5407 5408 5408 5408 5407 5407 5405 5402 5401 5399
5458 5455 5452 5448 5443 5438 5435 5431 5424 5414 5409 5402 5403 5407 5402 5398 5391 5395 5395 5395 5404 5404 5392 5402 5397 5400 5399 5397 5395 5393 5394 5393 5394 5394 5393 5391 5389 5388
5442 5437 5434 5431 5424 5419 5415 5411 5405 5397 5390 5383 5379 5385 5379 5379 5370 5365 5366 5369 5374 5378 5374 5377 5377 5385 5381 5381 5380 5381 5381 5380 5380 5380 5380 5378 5377 5376
5428 5422 5416 5412 5406 5401 5395 5390 5388 5382 5371 5364 5358 5355 5353 5350 5345 5338 5341 5330 5339 5348 5351 5347 5356 5356 5355 5357 5362 5365 5364 5366 5367 5366 5365 5365 5365 5365
5416 5411 5401 5392 5387 5378 5367 5359 5356 5355 5346 5341 5334 5329 5323 5320 5317 5308 5307 5300 5300 5308 5325 5316 5326 5324 5324 5335 5340 5342 5346 5349 5349 5350 5351 5351 5351 5352
5399 5395 5385 5373 5364 5354 5341 5330 5321 5316 5312 5304 5302 5302 5298 5294 5292 5290 5286 5279 5277 5282 5297 5291 5301 5304 5304 5308 5318 5321 5326 5327 5329 5331 5333 5334 5336 5339
5381 5375 5364 5352 5342 5331 5317 5306 5296 5287 5281 5278 5277 5281 5277 5278 5276 5273 5271 5267 5265 5269 5275 5276 5283 5292 5293 5286 5296 5302 5304 5308 5310 5312 5314 5317 5320 5324
5353 5348 5341 5330 5317 5305 5293 5283 5277 5270 5263 5262 5265 5268 5266 5265 5264 5261 5260 5258 5259 5263 5266 5270 5276 5282 5283 5285 5284 5285 5287 5290 5293 5296 5298 5301 5304 5308
5328 5322 5313 5302 5289 5279 5275 5268 5261 5257 5255 5255 5256 5258 5258 5257 5257 5251 5251 5252 5253 5258 5260 5266 5269 5274 5276 5277 5279 5274 5278 5278 5278 5280 5281 5286 5292 5296
5303 5296 5287 5277 5271 5265 5260 5255 5251 5249 5247 5247 5249 5250 5250 5249 5250 5247 5248 5250 5251 5254 5259 5262 5262 5268 5271 5273 5275 5273 5268 5267 5268 5268 5268 5273 5280 5284
5282 5270 5267 5259 5256 5254 5252 5251 5245 5243 5244 5245 5245 5244 5243 5243 5245 5245 5248 5249 5252 5255 5257 5257 5260 5260 5262 5266 5268 5265 5262 5261 5260 5260 5262 5264 5270 5274
5262 5258 5252 5248 5245 5243 5242 5241 5243 5243 5242 5241 5241 5241 5238 5240 5242 5245 5249 5250 5251 5252 5254 5255 5256 5256 5257 5260 5257 5261 5257 5254 5253 5254 5256 5260 5266 5270
5248 5243 5241 5240 5240 5239 5239 5240 5241 5242 5240 5239 5239 5236 5234 5236 5242 5245 5248 5247 5248 5250 5253 5256 5255 5254 5256 5256 5254 5252 5255 5250 5248 5249 5251 5255 5261 5265
5242 5238 5235 5236 5237 5237 5237 5237 5238 5239 5238 5237 5236 5234 5232 5236 5241 5243 5246 5250 5251 5251 5253 5252 5255 5256 5251 5248 5244 5243 5245 5245 5246 5246 5247 5249 5254 5259
5235 5235 5235 5235 5235 5235 5235 5235 5236 5236 5235 5235 5234 5233 5233 5236 5240 5242 5243 5243 5248 5248 5248 5249 5249 5248 5243 5244 5243 5239 5236 5239 5243 5246 5249 5250 5248 5249
5234 5233 5233 5233 5233 5233 5233 5232 5233 5231 5231 5232 5233 5233 5234 5238 5239 5242 5243 5243 5243 5246 5245 5242 5241 5241 5240 5240 5237 5230 5229 5232 5238 5242 5246 5251 5256 5259